Valladolid Airport, Spain

11:08 AM CET on February 25, 2018 (GMT +0100)
Villanubla

Weather History for LEVD - October, 2012

Change the Weather History Date:

Saturday, October 6, 2012

  Actual Average Record
Temperature  
Mean Temperature 60 °F -  
Max Temperature 71 °F - - ()
Min Temperature 50 °F - - ()
Degree Days  
Heating Degree Days 4    
Growing Degree Days 10 (Base 50)    
Moisture  
Dew Point 49 °F    
Average Humidity 61    
Maximum Humidity 82    
Minimum Humidity 43    
Precipitation  
Precipitation 0.00 in - - ()
Sea Level Pressure  
Sea Level Pressure 30.17 in    
Wind  
Wind Speed 6 mph ()    
Max Wind Speed 15 mph    
Max Gust Speed -    
Visibility 6.2 miles    
Events      
T = Trace of Precipitation, MM = Missing Value Source: Averaged Metar Reports

Daily Weather History Graph

Daily Weather History Graph

Search for Another Location

Airport or City:

Trip Planner

Search our weather history database for the weather conditions in past years. The results will help you decide how hot, cold, wet, or windy it might be!

Date:

Astronomy

Oct. 06, 2012 Rise Set
Actual Time 8:21 AM CEST 7:52 PM CEST
Civil Twilight 7:54 AM CEST 8:19 PM CEST
Nautical Twilight 7:21 AM CEST 8:52 PM CEST
Astronomical Twilight 6:49 AM CEST 9:24 PM CEST
Moon 11:51 PM CEST (10/6) 2:09 PM CEST (10/6)
Length of Visible Light 12h 25m
Length of Day
11h 30m
Waning Gibbous, 68% of the Moon is Illuminated
Oct 6
Waning Gibbous
Oct 8
Last Quarter
Oct 15
New
Oct 22
First Quarter
Oct 29
Full

Hourly Weather History & Observations

Time (CEST) Temp. Dew Point Humidity Pressure Visibility Wind Dir Wind Speed Gust Speed Precip Events Conditions
6:00 AM 55.4 °F 42.8 °F 63% 30.12 in - SSW 6.9 mph - N/A   Clear
6:30 AM 53.6 °F 42.8 °F 67% 30.15 in - SW 3.5 mph - N/A   Clear
7:00 AM 53.6 °F 44.6 °F 72% 30.12 in - SW 3.5 mph - N/A   Clear
7:30 AM 51.8 °F 44.6 °F 76% 30.12 in - South 4.6 mph - N/A   Clear
8:00 AM 51.8 °F 44.6 °F 76% 30.15 in - South 2.3 mph - N/A   Clear
8:30 AM 50.0 °F 44.6 °F 82% 30.15 in - Calm Calm - N/A   Clear
9:00 AM 51.8 °F 44.6 °F 76% 30.15 in - SSE 3.5 mph - N/A   Clear
9:30 AM 57.2 °F 48.2 °F 72% 30.15 in - SSE 1.2 mph - N/A   Clear
10:00 AM 59.0 °F 50.0 °F 72% 30.15 in - SSE 3.5 mph - N/A   Clear
10:30 AM 59.0 °F 50.0 °F 72% 30.18 in - South 3.5 mph - N/A   Clear
11:00 AM 60.8 °F 51.8 °F 72% 30.18 in - South 5.8 mph - N/A   Clear
11:30 AM 62.6 °F 53.6 °F 72% 30.18 in - SW 9.2 mph - N/A   Clear
12:00 PM 64.4 °F 53.6 °F 68% 30.18 in - SW 9.2 mph - N/A   Clear
12:30 PM 64.4 °F 53.6 °F 68% 30.18 in - WSW 10.4 mph - N/A   Clear
1:00 PM 66.2 °F 53.6 °F 64% 30.18 in - SW 11.5 mph - N/A   Clear
1:30 PM 68.0 °F 53.6 °F 60% 30.18 in 6.2 mi WSW 11.5 mph - N/A   Partly Cloudy
2:00 PM 68.0 °F 51.8 °F 56% 30.18 in 6.2 mi WSW 11.5 mph - N/A   Partly Cloudy
2:30 PM 68.0 °F 50.0 °F 52% 30.18 in 6.2 mi WSW 12.7 mph - N/A   Partly Cloudy
3:00 PM 71.6 °F 50.0 °F 46% 30.18 in 6.2 mi WSW 12.7 mph - N/A   Partly Cloudy
3:30 PM 71.6 °F 48.2 °F 43% 30.15 in 6.2 mi West 12.7 mph - N/A   Partly Cloudy
4:00 PM 71.6 °F 48.2 °F 43% 30.15 in 6.2 mi WSW 15.0 mph - N/A   Partly Cloudy
4:30 PM 71.6 °F 48.2 °F 43% 30.15 in 6.2 mi WSW 12.7 mph - N/A   Partly Cloudy
5:00 PM 69.8 °F 46.4 °F 43% 30.15 in 6.2 mi WSW 13.8 mph - N/A   Partly Cloudy
5:30 PM 69.8 °F 48.2 °F 46% 30.15 in 6.2 mi West 12.7 mph - N/A   Partly Cloudy
6:00 PM 69.8 °F 48.2 °F 46% 30.15 in 6.2 mi WSW 11.5 mph - N/A   Partly Cloudy
6:30 PM 69.8 °F 50.0 °F 49% 30.15 in 6.2 mi West 11.5 mph - N/A   Partly Cloudy
7:00 PM 69.8 °F 50.0 °F 49% 30.18 in - WSW 10.4 mph - N/A   Clear
7:30 PM 68.0 °F 50.0 °F 52% 30.18 in - WSW 9.2 mph - N/A   Clear
8:00 PM 68.0 °F 50.0 °F 52% 30.18 in - WSW 8.1 mph - N/A   Clear
8:30 PM 66.2 °F 50.0 °F 56% 30.18 in - WSW 3.5 mph - N/A   Clear
9:00 PM 64.4 °F 50.0 °F 59% 30.21 in - WSW 3.5 mph - N/A   Clear
9:30 PM 64.4 °F 50.0 °F 59% 30.21 in - West 5.8 mph - N/A   Clear
10:00 PM 64.4 °F 51.8 °F 64% 30.21 in - West 6.9 mph - N/A   Clear
10:30 PM 62.6 °F 51.8 °F 68% 30.21 in - West 5.8 mph - N/A   Clear